Starlink 4080

operational
NORAD ID: 52835 Int'l Des: 2022-062 Owner: SPXS Country: US Constellation: starlink
LEOCIRCULAR

Über Starlink 4080

Beschreibung wird geladen...

Live-Position

3D-Globus wird geladen...

Nächste Überflüge

Höhenverlauf

Altitude vs Time

uPlot chart will show altitude changes over time

Zweizeiliger Elementsatz

1 52835U 22062F 25353.14330164 -.00000159 00000-0 81333-5 0 9994
2 52835 53.2168 35.7065 0001627 92.8781 267.2398 15.08838151193625
Epoch: 19. Dez. 2025 • Age: 15 hours

Aktueller Status

Höhe 539.6 km
Geschwindigkeit 7.59 km/s
Subsatellitenpunkt 9.44°N, 160.15°W
Startdatum 17. Juni 2022
Alter 3.5 years
Typ internet

Technische Details

Klassifizierung Payload
Masse 297.00 kg
Trockenmasse 275.00 kg
Gesamtmasse 297.00 kg
Länge 0.20 m
Durchmesser 2.80 m
Spannweite 9.00 m
Form Box + pan
Hersteller SPXS
Bus-Typ Starlink
Phasenstatus In Orbit
Besitzer/Staat SPXS/US

Große Konstellationen

Loading constellations...